Regional Weather Roundup
Issued by NWS Grand Forks, ND

Home | Current Version | Previous Version | Text Only | Print | Product List | Glossary Off
Versions: 1 2 3 4 5 6 7 8 9 10 11 12 13 14 15 16 17 18 19 20 21 22 23 24 25 26 27 28 29 30 31 32 33 34 35 36 37 38 39 40 41 42 43 44 45 46 47 48 49 50

000
ASUS43 KFGF 041510
RWRFGF
PRAIRIE TO PINES  WEATHER ROUNDUP
NATIONAL WEATHER SERVICE EASTERN NORTH DAKOTA/GRAND FORKS ND
1000 AM CDT SAT JUL 04 2015

 **SATELLITE DATA USED TO AUGMENT SKY COVER AT AUTOMATED STATIONS**
 *****  WEATHER ACROSS EASTERN NORTH DAKOTA  *****

CITY           SKY/WX    TMP DP  RH WIND       PRES   REMARKS
GRAND FORKS    CLOUDY    74  65  73 S8        29.84F HAZE
GRAND FRKS AFB SUNNY     74  66  76 S9        29.84F HAZE
GRAND FRKS NWS   N/A     73 N/A N/A S10         N/A
DEVILS LAKE    SUNNY     75  64  69 S10       29.82F
FARGO          SUNNY     75  66  73 S8        29.88S HAZE
WAHPETON ARPT  SUNNY     73  64  73 S5        29.91S
$$

 ***** WEATHER ACROSS CENTRAL AND WESTERN NORTH DAKOTA  *****

CITY           SKY/WX    TMP DP  RH WIND       PRES   REMARKS
BISMARCK       SUNNY     74  67  78 SE7       29.82S HAZE
MINOT          MOSUNNY   77  62  59 S7        29.76F HAZE
JAMESTOWN      SUNNY     76  66  71 S6        29.85F HAZE
MINOT AFB      SUNNY     78  71  80 S8        29.76S
GARRISON         N/A     73  65  75 S9        29.79F
WILLISTON      SUNNY     77  62  59 S7        29.76S
DICKINSON      SUNNY     74  63  68 S10       29.79F HAZE
HETTINGER      MOSUNNY   72  63  73 S6        29.84S HAZE
$$

 *****  OTHER AIRPORT OBSERVATIONS IN OUR AREA  *****

CITY           SKY/WX    TMP DP  RH WIND       PRES   REMARKS
WALHALLA       FAIR      75  73  94 MISG      29.82S FOG
GRAFTON AIRPOR FAIR      73  68  83 S12       29.84F HAZE
VALLEY CITY AR FAIR      73  72  94 S6        29.87F FOG
CANDO          FAIR      75  68  78 S12       29.82F HAZE
CAVALIER APRT  FAIR      72  64  78 S9        29.83S HAZE
GWINNER        FAIR      75  66  73 S8        29.89F
SHEYENNE NWR     N/A     75  68  77 S7        29.95S
ROLLA          FAIR      72  68  88 S10       29.83S FOG
 ***** THE ABOVE OBSERVATIONS ARE NON NWS ARE NOT QUALITY
       CONTROLLED AND MAY MIS-REPORT RAIN FOR SNOW...
$$

  *****  WEATHER ACROSS NORTHERN MINNESOTA  *****

CITY           SKY/WX    TMP DP  RH WIND       PRES   REMARKS
FLAG ISLAND    MOSUNNY   70  61  73 S8        29.88F
WARROAD        MOSUNNY   72  63  73 S7        29.89F
ROSEAU         MOSUNNY   70  63  78 S9        29.88F HAZE
HALLOCK        SUNNY     73  64  73 S9        29.84S HAZE
THF RVR FALLS  SUNNY     72  63  73 S9        29.89F
BAUDETTE       SUNNY     70  60  70 S6        29.91F
WASKISH        SUNNY     72  61  68 SE5       29.93S
CROOKSTON      SUNNY     73  64  73 S12       29.88F HAZE
$$
  *****  WEATHER ACROSS CENTRAL AND WEST MINNESOTA  *****

CITY           SKY/WX    TMP DP  RH WIND       PRES   REMARKS
FOSSTON        SUNNY     72  61  68 CALM      29.92S HAZE
BEMIDJI        SUNNY     72  58  60 S6        29.94S
PARK RAPIDS    CLOUDY    72  57  59 S8        29.94F
ELBOW LAKE     FAIR      73  66  79 SE8       29.92S HAZE
WADENA         SUNNY     72  61  68 SE5       29.94S HAZE
DETROIT LAKES  SUNNY     73  63  68 S8        29.93F HAZE
MOORHEAD       SUNNY     73  66  78 S9        29.90S HAZE
FERGUS FALLS   SUNNY     73  64  73 S7        29.91S HAZE
MORRIS MN      SUNNY     75  66  73 SW3       29.92S HAZE
STAPLES        SUNNY     70  59  68 SE3       29.94F HAZE
$$
  *****  WEATHER ELSEWHERE ACROSS MINNESOTA  *****

CITY           SKY/WX    TMP DP  RH WIND       PRES   REMARKS
DULUTH         SUNNY     70  59  68 E6        29.97F
INTRNTL FALLS  SUNNY     70  57  63 SE6       29.94F
ELY            SUNNY     68  55  64 SE5       29.98F
CLOQUET        SUNNY     70  61  73 SE5       29.97F
WHEATON        SUNNY     72  66  83 S5        29.92F
BRAINERD       SUNNY     73  59  61 SE6       29.95F HAZE
HIBBING        SUNNY     71  58  63 S3        29.97F
ALEXANDRIA     MOSUNNY   74  66  76 S6        29.95S HAZE
SAINT CLOUD    PTSUNNY   73  63  70 E5        29.94S HAZE
MINNEAPOLIS    PTSUNNY   74  63  68 S5        29.95S
$$

  *****  WEATHER ACROSS SOUTH DAKOTA  *****

CITY           SKY/WX    TMP DP  RH WIND       PRES   REMARKS
SIOUX FALLS    SUNNY     73  64  73 SW7       29.96F
BROOKINGS      SUNNY     72  64  78 SW7       29.97S
WATERTOWN      SUNNY     72  65  78 S8        29.93F
HURON          MOSUNNY   71  66  84 SE8       29.89F
SISSETON         N/A     77  65  66 SW8       29.89F
ABERDEEN       MOSUNNY   72  66  81 S10       29.88F
MITCHELL       MOSUNNY   73  66  78 S10       29.92F
PIERRE         SUNNY     75  67  76 S9        29.84F
MOBRIDGE       SUNNY     75  68  78 SE14      29.80F
RAPID CITY     SUNNY     76  64  66 S10       29.85F
$$

  *****  SOME WEATHER IN NEARBY STATES *****

CITY           SKY/WX    TMP DP  RH WIND       PRES   REMARKS
GLASGOW MT     SUNNY     77  57  50 SE5       29.71F
GREAT FALLS MT SUNNY     78  44  29 NW15      29.88R
CHEYENNE WY    SUNNY     76  56  49 S6        30.06S
SCOTTSBLUFF NE SUNNY     73  61  65 VRB6      29.94F
OMAHA NE       SUNNY     72  59  63 S6        30.01S
DES MOINES IA  MOSUNNY   73  61  65 SW3       30.02R
DAVENPORT IA   SUNNY     72  58  61 W5        30.03R
CHICAGO IL     SUNNY     73  55  53 W6        30.00R
EAU CLAIRE WI  SUNNY     72  61  68 CALM      29.95S
LA CROSSE WI   SUNNY     71  59  65 SE5       29.96F
$$

  *****  SOME NATIONAL WEATHER *****

CITY           SKY/WX    TMP DP  RH WIND       PRES   REMARKS
LA GUARDIA NY  CLOUDY    70  59  68 NE13      29.95R
RALEIGH NC     PTSUNNY   81  70  69 W10G18    29.97S
ATLANTA GA     HVY RAIN  70  66  88 SW6       30.14R FOG
NEW ORLEANS LA PTSUNNY   87  74  64 S10       30.08R HX  95
OKLAHOMA CITY  MOSUNNY   80  71  74 SE5       29.98R
ALBUQUERQUE NM PTSUNNY   76  56  49 CALM      30.18R
SALT LAKE CITY PTSUNNY   84  51  31 SE6       29.94R
LOS ANGELES CA CLOUDY    64  60  87 CALM      29.89S
BOISE ID       SUNNY     79  42  26 CALM      29.87R
SEATTLE WA     MOSUNNY   64  54  69 S3        29.91R
$$

*** WEATHER ACROSS MANITOBA...SASKATCHEWAN AND ONTARIO ***
                ***ONTARIO***

CITY           SKY/WX    TMP DP  RH WIND       PRES   REMARKS
GERALDTON      PTSUNNY   64  52  63 VRB5      29.99S
THUNDER BAY    MOSUNNY   64  59  82 CALM      29.99S
SIOUX LOOKOUT  CLOUDY    66  57  72 S9        29.94F
TORONTO        PTSUNNY   72  48  43 N5        29.95S
BIG TROUT LK   SUNNY     64  52  63 S12       29.84F
PICKLE LAKE    CLOUDY    68  54  60 S9G17     29.91F
DRYDEN         SUNNY     70  55  60 S12G18    29.93F
KENORA         MOSUNNY   68  57  68 S12       29.91S
$$
                *** MANITOBA***

CITY           SKY/WX    TMP DP  RH WIND       PRES   REMARKS
BRANDON        PTSUNNY   72  66  83 CALM      29.76F SMOKE
DAUPHIN        LGT RAIN  72  66  83 W7        29.72R
ISLAND LAKE    TSTM      63  61  94 S9        29.70F
PILOT MOUND      N/A     72  66  83 S12         N/A
THE PAS          N/A     64  61  88 W8        29.67R SMOKE
THOMPSON       CLOUDY    64  61  88 SW7       29.57F SMOKE
WINNIPEG       SUNNY     72  64  78 S14       29.80F SMOKE
LYNN LAKE      CLOUDY    63  57  82 W8G18     29.60S HAZE
CHURCHILL      LGT RAIN  45  43  93 SE25G38   29.72R
$$
                ***SASKATCHEWAN***

CITY           SKY/WX    TMP DP  RH WIND       PRES   REMARKS
ESTEVAN        NOT AVBL
KINDERSLEY     LGT RAIN  59  55  88 W7        29.87R
LLOYDMINSTER   PTSUNNY   64  50  59 NW9       29.86R SMOKE
PRINCE ALBERT    N/A     64  54  68 S5        29.76R SMOKE
REGINA         PTSUNNY   72  61  68 N8        29.76R
YORKTON        LGT RAIN  68  63  83 S7        29.75S FOG
N. BATTLEFORD  SUNNY     64  54  68 NW8       29.85R
LA RONGE       SMOKE     64  50  59 W6        29.76R VSB 3/8
SASKATOON      SMOKE     66  59  77 CALM      29.79S VSB 1
SWIFT CURRENT  PTSUNNY   66  59  77 NE17      29.81R
$$
NOTE: THESE ARE AUTOMATED STATIONS WITH LIMITED QUALITY CONTROL
      "FAIR" INDICATES FEW OR NO CLOUDS BELOW 12,000 FEET WITH NO
      SIGNIFICANT WEATHER AND/OR OBSTRUCTIONS TO VISIBILITY.
      SKY/WX - SKY CONDITION AND SIGNIFICANT WEATHER.
      TMP - AIR TEMPERATURE.    DP   - DEWPOINT TEMPERATURE.
      RH  - RELATIVE HUMIDITY.  PRES - PRESSURE.
      HX  - HEAT INDEX.         WCI  - WIND CHILL INDEX.
$



USA.gov is the U.S. government's official web portal to all federal, state and local government web resources and services.